Voltar ao catálogo

STARLINK-32380

AtivoComunicaçõesVLEO
NORAD 61069·PAYLOAD·🇺🇸 United States

Lançado Sep 13, 2024 de Vandenberg Space Force Base

Loading…

Próximas Passagens (próximas 24 horas)

TLE

AtualizadoSource: CelesTrak SupGP

Época: Sep 14, 2026, 21:35 UTC

1 61069C 24164V   26257.89979167  .00030104  00000+0  96918-3 0  2577
2 61069  53.1589 290.9986 0001023 112.1647 269.4112 15.31649921    13

Acompanhe STARLINK-32380 em tempo real com AllMySat

Download on the App Store